YRAGD LRPW-LROP

Flight info

Callsign YRAGD
Flight time 0h 15m
Altitude 3000
Route GORER
Aircraft AEST/L-LY/C

Departure

Time 2026-05-07 17:04
Airport Ploiești-Strejnicu Airfield (LRPW)

Arrival

Time 2026-05-07 17:20
Airport Bucharest Henri Coandă International Airport (LROP)
Time Latitude Longitude Altitude Speed Heading
2026-05-07 16:57 44.92286 25.96876 576 ft 0 kts 62°
2026-05-07 17:03 44.92304 25.96883 576 ft 11 kts 353°
2026-05-07 17:04 44.92366 25.96864 576 ft 8 kts 309°
2026-05-07 17:04 44.92410 25.96736 574 ft 28 kts 263°
2026-05-07 17:04 44.92327 25.96019 614 ft 102 kts 261°
2026-05-07 17:04 44.92140 25.94955 928 ft 128 kts 229°
2026-05-07 17:05 44.91290 25.94668 1432 ft 134 kts 166°
2026-05-07 17:05 44.90401 25.95135 1788 ft 152 kts 147°
2026-05-07 17:05 44.89559 25.96116 2013 ft 150 kts 136°
2026-05-07 17:05 44.88757 25.97068 2426 ft 153 kts 142°
2026-05-07 17:06 44.87970 25.97942 2752 ft 139 kts 142°
2026-05-07 17:06 44.87217 25.98780 3032 ft 137 kts 142°
2026-05-07 17:06 44.86445 25.99647 3161 ft 150 kts 142°
2026-05-07 17:06 44.85580 26.00623 3134 ft 168 kts 142°
2026-05-07 17:07 44.84643 26.01685 3075 ft 177 kts 142°
2026-05-07 17:07 44.83648 26.02805 3002 ft 188 kts 142°
2026-05-07 17:07 44.82634 26.03942 2993 ft 187 kts 142°
2026-05-07 17:07 44.81617 26.05083 3004 ft 186 kts 142°
2026-05-07 17:08 44.80606 26.06218 3007 ft 185 kts 142°
2026-05-07 17:08 44.79598 26.07353 3005 ft 185 kts 142°
2026-05-07 17:08 44.78589 26.08487 3007 ft 185 kts 142°
2026-05-07 17:08 44.77529 26.09498 3009 ft 184 kts 156°
2026-05-07 17:09 44.76293 26.09874 3016 ft 182 kts 175°
2026-05-07 17:09 44.75023 26.10008 2998 ft 183 kts 175°
2026-05-07 17:09 44.73747 26.10107 3002 ft 183 kts 184°
2026-05-07 17:09 44.72574 26.09493 3008 ft 183 kts 216°
2026-05-07 17:10 44.71814 26.08063 3006 ft 186 kts 242°
2026-05-07 17:10 44.71301 26.06378 2998 ft 188 kts 245°
2026-05-07 17:10 44.70806 26.04682 3011 ft 187 kts 245°
2026-05-07 17:10 44.70305 26.02982 3008 ft 189 kts 245°
2026-05-07 17:11 44.69809 26.01279 3010 ft 189 kts 245°
2026-05-07 17:11 44.69306 25.99573 3007 ft 189 kts 245°
2026-05-07 17:11 44.68800 25.97860 3006 ft 190 kts 245°
2026-05-07 17:11 44.68300 25.96174 3014 ft 190 kts 246°
2026-05-07 17:12 44.67789 25.94452 3006 ft 191 kts 245°
2026-05-07 17:12 44.67281 25.92730 3008 ft 190 kts 246°
2026-05-07 17:12 44.66783 25.91001 3006 ft 191 kts 246°
2026-05-07 17:12 44.66284 25.89271 3006 ft 191 kts 246°
2026-05-07 17:13 44.65787 25.87544 3007 ft 191 kts 246°
2026-05-07 17:13 44.65290 25.85818 2998 ft 190 kts 246°
2026-05-07 17:13 44.64757 25.84119 3006 ft 190 kts 236°
2026-05-07 17:13 44.63800 25.82886 3013 ft 188 kts 206°
2026-05-07 17:14 44.62544 25.82490 3003 ft 186 kts 180°
2026-05-07 17:14 44.61234 25.82555 2690 ft 199 kts 176°
2026-05-07 17:14 44.59848 25.82663 2406 ft 198 kts 176°
2026-05-07 17:14 44.58497 25.82770 2123 ft 192 kts 176°
2026-05-07 17:15 44.57176 25.82878 2370 ft 181 kts 176°
2026-05-07 17:15 44.55940 25.83019 2533 ft 176 kts 169°
2026-05-07 17:15 44.54875 25.83798 2503 ft 175 kts 135°
2026-05-07 17:15 44.54221 25.85262 2443 ft 180 kts 117°
2026-05-07 17:16 44.53682 25.86857 2365 ft 182 kts 116°
2026-05-07 17:16 44.53232 25.88482 2302 ft 182 kts 100°
2026-05-07 17:16 44.53392 25.90168 2273 ft 174 kts 67°
2026-05-07 17:16 44.54157 25.91426 2300 ft 166 kts 43°
2026-05-07 17:17 44.55032 25.92435 2269 ft 162 kts 42°
2026-05-07 17:17 44.55637 25.93730 2154 ft 161 kts 79°
2026-05-07 17:17 44.55566 25.95277 1941 ft 162 kts 102°
2026-05-07 17:17 44.55649 25.96856 1722 ft 165 kts 87°
2026-05-07 17:18 44.55768 25.98460 1530 ft 167 kts 86°
2026-05-07 17:18 44.55889 26.00085 1337 ft 168 kts 86°
2026-05-07 17:18 44.56011 26.01698 1127 ft 163 kts 86°
2026-05-07 17:18 44.56123 26.03192 911 ft 132 kts 86°
2026-05-07 17:19 44.56224 26.04375 753 ft 122 kts 85°
2026-05-07 17:19 44.56309 26.05550 630 ft 119 kts 85°
2026-05-07 17:19 44.56391 26.06656 501 ft 110 kts 84°
2026-05-07 17:19 44.56470 26.07723 350 ft 110 kts 85°
2026-05-07 17:20 44.56536 26.08616 318 ft 70 kts 84°
2026-05-07 17:20 44.56557 26.08951 318 ft 10 kts 98°
2026-05-07 17:20 44.56570 26.08903 317 ft 25 kts 256°
2026-05-07 17:20 44.56627 26.08612 317 ft 32 kts 326°
2026-05-07 17:21 44.56818 26.08566 318 ft 24 kts 354°
2026-05-07 17:21 44.56923 26.08624 317 ft 17 kts 84°
2026-05-07 17:21 44.56949 26.08962 317 ft 71 kts 84°
2026-05-07 17:21 44.56985 26.09433 317 ft 24 kts 85°
2026-05-07 17:22 44.56996 26.09587 317 ft 13 kts 84°